Time,TemperatureF,DewpointF,PressureIn,WindDirection,WindDirectionDegrees,WindSpeedMPH,WindSpeedGustMPH,Humidity,HourlyPrecipIn,Conditions,Clouds,dailyrainin,SoftwareType,DateUTC
2013-04-13 00:03:00,39.9,35.8,29.67,WSW,247,5.8,-999.0,85,-99.99,,,0.00,Acu-Link.com,2013-04-13 04:03:00,
2013-04-13 00:18:00,39.9,36.1,29.67,WSW,247,7.8,-999.0,86,-99.99,,,0.00,Acu-Link.com,2013-04-13 04:18:00,
2013-04-13 00:33:00,39.9,36.1,29.68,WSW,247,7.8,-999.0,86,-99.99,,,0.00,Acu-Link.com,2013-04-13 04:33:00,
2013-04-13 00:48:00,39.7,35.9,29.69,West,270,10.4,-999.0,86,-99.99,,,0.00,Acu-Link.com,2013-04-13 04:48:00,
2013-04-13 01:03:00,39.7,35.9,29.69,SW,225,10.9,-999.0,86,-99.99,,,0.00,Acu-Link.com,2013-04-13 05:03:00,
2013-04-13 01:19:00,39.7,36.2,29.69,WSW,247,6.3,-999.0,87,-99.99,,,0.00,Acu-Link.com,2013-04-13 05:19:00,
2013-04-13 01:34:00,39.6,36.1,29.70,SW,225,10.9,-999.0,87,-99.99,,,0.00,Acu-Link.com,2013-04-13 05:34:00,
2013-04-13 01:49:00,39.4,36.1,29.70,SW,225,6.3,-999.0,88,-99.99,,,0.00,Acu-Link.com,2013-04-13 05:49:00,
2013-04-13 02:04:00,39.4,36.1,29.70,WNW,292,10.4,-999.0,88,-99.99,,,0.00,Acu-Link.com,2013-04-13 06:04:00,
2013-04-13 02:19:00,39.4,36.1,29.70,SW,225,7.8,-999.0,88,-99.99,,,0.00,Acu-Link.com,2013-04-13 06:19:00,
2013-04-13 02:34:00,39.4,36.1,29.70,SW,225,8.9,-999.0,88,-99.99,,,0.00,Acu-Link.com,2013-04-13 06:34:00,
2013-04-13 02:49:00,39.4,36.1,29.70,SSW,202,7.3,-999.0,88,-99.99,,,0.00,Acu-Link.com,2013-04-13 06:49:00,
2013-04-13 03:04:00,39.6,36.1,29.69,SSW,202,6.3,-999.0,87,-99.99,,,0.00,Acu-Link.com,2013-04-13 07:04:00,
2013-04-13 03:19:00,39.6,36.1,29.69,SW,225,7.3,-999.0,87,-99.99,,,0.00,Acu-Link.com,2013-04-13 07:19:00,
2013-04-13 03:34:00,39.6,36.1,29.69,WSW,247,9.4,-999.0,87,-99.99,,,0.00,Acu-Link.com,2013-04-13 07:34:00,
2013-04-13 03:49:00,39.6,36.1,29.69,WSW,247,8.3,-999.0,87,-99.99,,,0.00,Acu-Link.com,2013-04-13 07:49:00,
2013-04-13 04:21:00,39.6,36.3,29.69,SSW,202,5.3,-999.0,88,-99.99,,,0.00,Acu-Link.com,2013-04-13 08:21:00,
2013-04-13 04:36:00,39.6,36.3,29.70,SSW,202,15.0,-999.0,88,-99.99,,,0.00,Acu-Link.com,2013-04-13 08:36:00,
2013-04-13 04:51:00,39.6,36.3,29.69,SW,225,7.8,-999.0,88,-99.99,,,0.00,Acu-Link.com,2013-04-13 08:51:00,
2013-04-13 05:07:00,39.6,36.3,29.69,West,270,9.9,-999.0,88,-99.99,,,0.00,Acu-Link.com,2013-04-13 09:07:00,
2013-04-13 05:22:00,39.6,36.3,29.69,SSW,202,14.5,-999.0,88,-99.99,,,0.00,Acu-Link.com,2013-04-13 09:22:00,
2013-04-13 06:22:00,39.6,36.3,29.68,WSW,247,10.9,-999.0,88,-99.99,,,0.00,Acu-Link.com,2013-04-13 10:22:00,
2013-04-13 06:38:00,39.6,36.3,29.69,SSW,202,14.0,-999.0,88,-99.99,,,0.00,Acu-Link.com,2013-04-13 10:38:00,
2013-04-13 06:53:00,39.6,36.1,29.68,SW,225,8.9,-999.0,87,-99.99,,,0.00,Acu-Link.com,2013-04-13 10:53:00,
2013-04-13 07:08:00,39.6,36.1,29.70,SW,225,8.3,-999.0,87,-99.99,,,0.00,Acu-Link.com,2013-04-13 11:08:00,
2013-04-13 07:23:00,39.6,36.1,29.70,West,270,15.0,-999.0,87,-99.99,,,0.00,Acu-Link.com,2013-04-13 11:23:00,
2013-04-13 07:38:00,39.6,35.8,29.70,West,270,11.9,-999.0,86,-99.99,,,0.00,Acu-Link.com,2013-04-13 11:38:00,
2013-04-13 07:53:00,39.6,34.9,29.70,SW,225,10.4,-999.0,83,-99.99,,,0.00,Acu-Link.com,2013-04-13 11:53:00,
2013-04-13 08:08:00,39.6,33.3,29.70,West,270,17.6,-999.0,78,-99.99,,,0.00,Acu-Link.com,2013-04-13 12:08:00,
2013-04-13 08:24:00,39.7,33.4,29.71,SW,225,17.1,-999.0,78,-99.99,,,0.00,Acu-Link.com,2013-04-13 12:24:00,
2013-04-13 09:09:00,40.3,34.0,29.71,SW,225,11.4,-999.0,78,-99.99,,,0.00,Acu-Link.com,2013-04-13 13:09:00,
2013-04-13 09:24:00,40.5,33.5,29.72,SSW,202,14.5,-999.0,76,-99.99,,,0.00,Acu-Link.com,2013-04-13 13:24:00,
2013-04-13 09:40:00,40.8,33.5,29.72,West,270,11.4,-999.0,75,-99.99,,,0.00,Acu-Link.com,2013-04-13 13:40:00,
2013-04-13 09:55:00,41.4,34.4,29.71,West,270,13.5,-999.0,76,-99.99,,,0.00,Acu-Link.com,2013-04-13 13:55:00,
2013-04-13 10:10:00,41.2,34.2,29.72,SW,225,13.5,-999.0,76,-99.99,,,0.00,Acu-Link.com,2013-04-13 14:10:00,
2013-04-13 10:25:00,41.7,34.4,29.72,WNW,292,11.9,-999.0,75,-99.99,,,0.00,Acu-Link.com,2013-04-13 14:25:00,
2013-04-13 10:40:00,42.1,34.8,29.71,SW,225,17.1,-999.0,75,-99.99,,,0.00,Acu-Link.com,2013-04-13 14:40:00,
2013-04-13 11:41:00,42.3,35.0,29.73,West,270,20.7,-999.0,75,-99.99,,,0.00,Acu-Link.com,2013-04-13 15:41:00,
2013-04-13 11:57:00,42.8,35.1,29.73,WSW,247,20.2,-999.0,74,-99.99,,,0.00,Acu-Link.com,2013-04-13 15:57:00,
2013-04-13 12:12:00,42.8,35.4,29.73,West,270,15.5,-999.0,75,-99.99,,,0.00,Acu-Link.com,2013-04-13 16:12:00,
2013-04-13 12:28:00,43.9,36.5,29.73,WSW,247,13.0,-999.0,75,-99.99,,,0.00,Acu-Link.com,2013-04-13 16:28:00,
2013-04-13 12:43:00,43.5,35.1,29.73,SW,225,21.2,-999.0,72,-99.99,,,0.00,Acu-Link.com,2013-04-13 16:43:00,
2013-04-13 13:14:00,39.2,34.5,29.76,West,270,13.5,-999.0,83,-99.99,,,0.00,Acu-Link.com,2013-04-13 17:14:00,
2013-04-13 14:15:00,43.2,36.2,29.75,WSW,247,13.0,-999.0,76,-99.99,,,0.00,Acu-Link.com,2013-04-13 18:15:00,
2013-04-13 14:30:00,45.0,36.2,29.75,West,270,14.0,-999.0,71,-99.99,,,0.00,Acu-Link.com,2013-04-13 18:30:00,
2013-04-13 14:45:00,44.1,37.0,29.75,West,270,16.1,-999.0,76,-99.99,,,0.00,Acu-Link.com,2013-04-13 18:45:00,
2013-04-13 15:00:00,44.2,35.8,29.75,SW,225,13.0,-999.0,72,-99.99,,,0.00,Acu-Link.com,2013-04-13 19:00:00,
2013-04-13 15:15:00,44.6,36.1,29.75,NW,315,15.0,-999.0,72,-99.99,,,0.00,Acu-Link.com,2013-04-13 19:15:00,
2013-04-13 15:31:00,47.1,37.1,29.75,West,270,8.9,-999.0,68,-99.99,,,0.00,Acu-Link.com,2013-04-13 19:31:00,
2013-04-13 15:46:00,47.3,37.3,29.75,NW,315,12.5,-999.0,68,-99.99,,,0.00,Acu-Link.com,2013-04-13 19:46:00,
2013-04-13 16:01:00,46.4,35.7,29.76,NNW,337,10.9,-999.0,66,-99.99,,,0.00,Acu-Link.com,2013-04-13 20:01:00,
2013-04-13 16:16:00,46.4,34.9,29.75,WSW,247,15.5,-999.0,64,-99.99,,,0.00,Acu-Link.com,2013-04-13 20:16:00,
2013-04-13 16:47:00,46.4,34.5,29.75,WNW,292,20.2,-999.0,63,-99.99,,,0.00,Acu-Link.com,2013-04-13 20:47:00,
2013-04-13 17:02:00,47.1,35.6,29.75,NW,315,12.5,-999.0,64,-99.99,,,0.00,Acu-Link.com,2013-04-13 21:02:00,
2013-04-13 17:17:00,45.7,34.2,29.75,West,270,14.0,-999.0,64,-99.99,,,0.00,Acu-Link.com,2013-04-13 21:17:00,
2013-04-13 17:32:00,46.6,35.1,29.74,WNW,292,11.9,-999.0,64,-99.99,,,0.00,Acu-Link.com,2013-04-13 21:32:00,
2013-04-13 17:47:00,46.8,34.9,29.75,West,270,14.5,-999.0,63,-99.99,,,0.00,Acu-Link.com,2013-04-13 21:47:00,
2013-04-13 18:02:00,48.6,35.4,29.75,WSW,247,13.5,-999.0,60,-99.99,,,0.00,Acu-Link.com,2013-04-13 22:02:00,
2013-04-13 18:18:00,48.0,35.2,29.75,West,270,11.4,-999.0,61,-99.99,,,0.00,Acu-Link.com,2013-04-13 22:18:00,
2013-04-13 18:33:00,46.8,35.3,29.75,WSW,247,10.9,-999.0,64,-99.99,,,0.00,Acu-Link.com,2013-04-13 22:33:00,
2013-04-13 18:48:00,46.4,35.3,29.75,WSW,247,9.4,-999.0,65,-99.99,,,0.00,Acu-Link.com,2013-04-13 22:48:00,
2013-04-13 19:03:00,47.5,36.3,29.76,West,270,11.9,-999.0,65,-99.99,,,0.00,Acu-Link.com,2013-04-13 23:03:00,
2013-04-13 19:18:00,46.6,35.5,29.75,WSW,247,10.9,-999.0,65,-99.99,,,0.00,Acu-Link.com,2013-04-13 23:18:00,
2013-04-13 19:33:00,46.6,35.9,29.75,West,270,10.4,-999.0,66,-99.99,,,0.00,Acu-Link.com,2013-04-13 23:33:00,
2013-04-13 19:48:00,46.4,36.0,29.74,WSW,247,6.8,-999.0,67,-99.99,,,0.00,Acu-Link.com,2013-04-13 23:48:00,
2013-04-13 20:03:00,45.7,35.4,29.75,SW,225,5.8,-999.0,67,-99.99,,,0.00,Acu-Link.com,2013-04-14 00:03:00,
2013-04-13 20:19:00,44.2,35.4,29.75,West,270,3.7,-999.0,71,-99.99,,,0.00,Acu-Link.com,2013-04-14 00:19:00,
2013-04-13 20:34:00,43.3,34.9,29.75,West,270,2.7,-999.0,72,-99.99,,,0.00,Acu-Link.com,2013-04-14 00:34:00,
2013-04-13 20:49:00,42.8,34.8,29.75,West,270,2.7,-999.0,73,-99.99,,,0.00,Acu-Link.com,2013-04-14 00:49:00,
2013-04-13 21:04:00,41.9,34.2,29.75,WSW,247,0.0,-999.0,74,-99.99,,,0.00,Acu-Link.com,2013-04-14 01:04:00,
2013-04-13 21:20:00,41.0,34.7,29.75,WNW,292,0.0,-999.0,78,-99.99,,,0.00,Acu-Link.com,2013-04-14 01:20:00,
2013-04-13 21:35:00,40.3,35.3,29.75,SSE,157,1.7,-999.0,82,-99.99,,,0.00,Acu-Link.com,2013-04-14 01:35:00,
2013-04-13 21:50:00,40.3,34.9,29.75,SE,135,0.0,-999.0,81,-99.99,,,0.00,Acu-Link.com,2013-04-14 01:50:00,
2013-04-13 22:06:00,40.5,35.8,29.75,ESE,112,1.1,-999.0,83,-99.99,,,0.00,Acu-Link.com,2013-04-14 02:06:00,
2013-04-13 22:21:00,40.5,35.8,29.75,East,90,0.0,-999.0,83,-99.99,,,0.00,Acu-Link.com,2013-04-14 02:21:00,
2013-04-13 22:51:00,40.6,36.7,29.76,SE,135,0.0,-999.0,86,-99.99,,,0.00,Acu-Link.com,2013-04-14 02:51:00,
2013-04-13 23:07:00,40.5,35.8,29.76,ESE,112,1.7,-999.0,83,-99.99,,,0.00,Acu-Link.com,2013-04-14 03:07:00,
2013-04-13 23:22:00,41.0,35.9,29.75,SE,135,2.2,-999.0,82,-99.99,,,0.00,Acu-Link.com,2013-04-14 03:22:00,
2013-04-13 23:37:00,41.4,36.3,29.75,SE,135,1.7,-999.0,82,-99.99,,,0.00,Acu-Link.com,2013-04-14 03:37:00,
2013-04-13 23:52:00,41.4,36.3,29.75,SSE,157,2.2,-999.0,82,-99.99,,,0.00,Acu-Link.com,2013-04-14 03:52:00,